When you browse on this site, cookies collect data to enhance your experience and personalize the content and advertising you see.
Visit our Privacy Policy to learn more. By continuing to use the site, you agree to this use of cookies and data.
  • In Switzerland
  • List of Countries
  • For 7 days
  • Water Temperature
  • Weather Map
  • Weather Widgets
  • user-avatar
    Login

    Hourly Weather Slavyanogorsk

    Today, 25 February, Tuesday

    Time Temperature Precipitation Wind Pressure Humidity
    00:00 -1°C° 0.7 mm 7 mps 736 mmHg 96%
    01:00 -1°C° 0.9 mm 9 mps 737 mmHg 96%
    02:00 -3°C° 0.9 mm 10 mps 738 mmHg 96%
    03:00 -3°C° 0.9 mm 12 mps 739 mmHg 95%
    04:00 -3°C° 0.1 mm 11 mps 740 mmHg 91%
    05:00 -3°C° 0.1 mm 10 mps 742 mmHg 86%
    06:00 -3°C° 0.1 mm 9 mps 743 mmHg 81%
    07:00 -3°C° 0 mm 9 mps 744 mmHg 81%
    08:00 -3°C° 0 mm 9 mps 746 mmHg 81%
    09:00 -3°C° 0 mm 9 mps 747 mmHg 81%
    10:00 -1°C° 0 mm 8 mps 748 mmHg 76%
    11:00 -1°C° 0 mm 8 mps 749 mmHg 71%
    12:00 0°C° 0 mm 8 mps 749 mmHg 66%
    13:00 0°C° 0 mm 7 mps 750 mmHg 64%
    14:00 +2°C° 0 mm 7 mps 750 mmHg 62%
    15:00 +2°C° 0 mm 6 mps 750 mmHg 60%
    16:00 +2°C° 0 mm 5 mps 751 mmHg 64%
    17:00 +1°C° 0 mm 4 mps 751 mmHg 68%
    18:00 +1°C° 0 mm 3 mps 751 mmHg 72%
    19:00 +1°C° 0 mm 3 mps 751 mmHg 74%
    20:00 0°C° 0 mm 3 mps 751 mmHg 75%
    21:00 0°C° 0 mm 3 mps 752 mmHg 77%
    22:00 0°C° 0 mm 3 mps 751 mmHg 77%
    23:00 0°C° 0 mm 3 mps 751 mmHg 77%

    Tomorrow, 26 February, Wednesday

    Time Temperature Precipitation Wind Pressure Humidity
    00:00 0°C° 0 mm 3 mps 751 mmHg 78%
    01:00 -1°C° 0 mm 4 mps 751 mmHg 80%
    02:00 -1°C° 0 mm 4 mps 751 mmHg 82%
    03:00 -1°C° 0 mm 4 mps 750 mmHg 84%
    04:00 -1°C° 0 mm 4 mps 750 mmHg 86%
    05:00 -1°C° 0 mm 5 mps 749 mmHg 88%
    06:00 0°C° 0 mm 5 mps 749 mmHg 90%
    07:00 0°C° 0 mm 5 mps 749 mmHg 87%
    08:00 +1°C° 0 mm 6 mps 749 mmHg 84%
    09:00 +1°C° 0 mm 6 mps 749 mmHg 80%
    10:00 +2°C° 0 mm 7 mps 748 mmHg 74%
    11:00 +4°C° 0 mm 7 mps 748 mmHg 68%
    12:00 +5°C° 0 mm 7 mps 748 mmHg 62%
    13:00 +6°C° 0 mm 7 mps 747 mmHg 61%
    14:00 +6°C° 0 mm 7 mps 747 mmHg 59%
    15:00 +7°C° 0 mm 8 mps 746 mmHg 58%
    16:00 +6°C° 0 mm 7 mps 746 mmHg 62%
    17:00 +5°C° 0 mm 7 mps 746 mmHg 65%
    18:00 +5°C° 0 mm 6 mps 745 mmHg 68%
    19:00 +4°C° 0 mm 6 mps 745 mmHg 70%
    20:00 +3°C° 0 mm 7 mps 745 mmHg 73%
    21:00 +3°C° 0 mm 7 mps 745 mmHg 75%
    22:00 +3°C° 0 mm 6 mps 745 mmHg 76%
    23:00 +3°C° 0 mm 6 mps 745 mmHg 78%

    Day after tomorrow, 27 February, Thursday

    Time Temperature Precipitation Wind Pressure Humidity
    00:00 +2°C° 0 mm 6 mps 745 mmHg 79%
    01:00 +2°C° 0 mm 6 mps 744 mmHg 79%
    02:00 +2°C° 0 mm 6 mps 744 mmHg 80%
    03:00 +2°C° 0 mm 6 mps 744 mmHg 80%
    04:00 +2°C° 0 mm 5 mps 744 mmHg 82%
    05:00 +2°C° 0 mm 5 mps 743 mmHg 83%
    06:00 +2°C° 0 mm 5 mps 743 mmHg 85%
    07:00 +3°C° 0 mm 5 mps 743 mmHg 84%
    08:00 +3°C° 0 mm 6 mps 743 mmHg 83%
    09:00 +4°C° 0 mm 6 mps 743 mmHg 82%
    10:00 +7°C° 0 mm 6 mps 742 mmHg 80%
    11:00 +8°C° 0 mm 7 mps 742 mmHg 78%
    12:00 +9°C° 0 mm 7 mps 742 mmHg 75%
    13:00 +9°C° 0 mm 7 mps 742 mmHg 75%
    14:00 +10°C° 0 mm 6 mps 741 mmHg 75%
    15:00 +10°C° 0 mm 6 mps 741 mmHg 74%
    16:00 +10°C° 0 mm 5 mps 741 mmHg 78%
    17:00 +9°C° 0 mm 5 mps 741 mmHg 81%
    18:00 +10°C° 0 mm 4 mps 741 mmHg 84%
    19:00 +9°C° 0.3 mm 5 mps 741 mmHg 84%
    20:00 +9°C° 0.3 mm 6 mps 741 mmHg 85%
    21:00 +9°C° 0.3 mm 6 mps 742 mmHg 86%
    22:00 +9°C° 0.1 mm 6 mps 741 mmHg 86%
    23:00 +9°C° 0.1 mm 7 mps 741 mmHg 86%

    28 February, Friday

    Time Temperature Precipitation Wind Pressure Humidity
    00:00 +8°C° 0.1 mm 7 mps 741 mmHg 87%
    01:00 +8°C° 0.8 mm 7 mps 741 mmHg 86%
    02:00 +7°C° 0.8 mm 8 mps 740 mmHg 85%
    03:00 +7°C° 0.8 mm 8 mps 740 mmHg 85%
    04:00 +7°C° 0.5 mm 8 mps 739 mmHg 85%
    05:00 +8°C° 0.5 mm 7 mps 739 mmHg 85%
    06:00 +8°C° 0.5 mm 7 mps 738 mmHg 85%
    07:00 +6°C° 0.2 mm 7 mps 738 mmHg 84%
    08:00 +6°C° 0.2 mm 7 mps 738 mmHg 82%
    09:00 +6°C° 0.2 mm 7 mps 738 mmHg 81%
    10:00 +5°C° 0.1 mm 7 mps 738 mmHg 80%
    11:00 +5°C° 0.1 mm 6 mps 739 mmHg 80%
    12:00 +4°C° 0.1 mm 6 mps 740 mmHg 80%
    13:00 +3°C° 0.4 mm 7 mps 741 mmHg 78%
    14:00 +2°C° 0.4 mm 9 mps 742 mmHg 76%
    15:00 +1°C° 0.4 mm 10 mps 743 mmHg 74%
    16:00 +1°C° 0 mm 8 mps 745 mmHg 72%
    17:00 +2°C° 0 mm 6 mps 746 mmHg 70%
    18:00 +2°C° 0 mm 5 mps 747 mmHg 68%
    19:00 +1°C° 0 mm 4 mps 748 mmHg 71%
    20:00 +1°C° 0 mm 4 mps 749 mmHg 75%
    21:00 +1°C° 0 mm 3 mps 750 mmHg 78%
    22:00 +1°C° 0 mm 3 mps 750 mmHg 79%
    23:00 +1°C° 0 mm 3 mps 750 mmHg 80%

    29 February, Saturday

    Time Temperature Precipitation Wind Pressure Humidity
    00:00 +1°C° 0 mm 2 mps 750 mmHg 81%
    01:00 +1°C° 0 mm 2 mps 750 mmHg 81%
    02:00 +1°C° 0 mm 2 mps 749 mmHg 81%
    03:00 +1°C° 0 mm 2 mps 749 mmHg 80%
    04:00 0°C° 0 mm 3 mps 749 mmHg 79%
    05:00 0°C° 0 mm 3 mps 749 mmHg 78%
    06:00 0°C° 0 mm 3 mps 749 mmHg 76%
    07:00 0°C° 0 mm 4 mps 748 mmHg 76%
    08:00 0°C° 0 mm 4 mps 748 mmHg 76%
    09:00 +1°C° 0 mm 4 mps 748 mmHg 75%
    10:00 +1°C° 0.1 mm 5 mps 748 mmHg 77%
    11:00 +2°C° 0.1 mm 5 mps 747 mmHg 78%
    12:00 +3°C° 0.1 mm 5 mps 747 mmHg 80%
    13:00 +2°C° 0.9 mm 5 mps 746 mmHg 85%
    14:00 +1°C° 0.9 mm 6 mps 746 mmHg 90%
    15:00 -1°C° 0.9 mm 6 mps 745 mmHg 96%
    16:00 +1°C° 1.5 mm 6 mps 745 mmHg 96%
    17:00 +1°C° 1.5 mm 6 mps 745 mmHg 96%
    18:00 +1°C° 1.5 mm 6 mps 744 mmHg 96%
    19:00 +1°C° 1 mm 5 mps 744 mmHg 96%
    20:00 +1°C° 1 mm 5 mps 744 mmHg 96%
    21:00 +1°C° 1 mm 5 mps 744 mmHg 96%
    22:00 +1°C° 0.6 mm 5 mps 744 mmHg 96%
    23:00 0°C° 0.6 mm 5 mps 744 mmHg 96%

    1 March, Sunday

    Time Temperature Precipitation Wind Pressure Humidity
    00:00 -1°C° 0.6 mm 6 mps 744 mmHg 96%
    01:00 -2°C° 1 mm 7 mps 745 mmHg 95%
    02:00 -2°C° 1 mm 8 mps 745 mmHg 95%
    03:00 -3°C° 1 mm 10 mps 746 mmHg 95%
    04:00 -3°C° 0.3 mm 10 mps 746 mmHg 93%
    05:00 -3°C° 0.3 mm 10 mps 747 mmHg 91%
    06:00 -4°C° 0.3 mm 10 mps 748 mmHg 89%
    07:00 -3°C° 0 mm 9 mps 749 mmHg 87%
    08:00 -3°C° 0 mm 9 mps 750 mmHg 84%
    09:00 -2°C° 0 mm 8 mps 750 mmHg 82%
    10:00 -1°C° 0 mm 8 mps 751 mmHg 78%
    11:00 -1°C° 0 mm 7 mps 751 mmHg 74%
    12:00 0°C° 0 mm 7 mps 752 mmHg 70%
    13:00 +2°C° 0 mm 6 mps 752 mmHg 65%
    14:00 +2°C° 0 mm 6 mps 752 mmHg 61%
    15:00 +3°C° 0 mm 6 mps 753 mmHg 56%
    16:00 +3°C° 0 mm 4 mps 753 mmHg 61%
    17:00 +3°C° 0 mm 3 mps 753 mmHg 66%
    18:00 +3°C° 0 mm 2 mps 753 mmHg 71%
    19:00 +3°C° 0 mm 2 mps 753 mmHg 72%
    20:00 +3°C° 0 mm 1 mps 753 mmHg 73%
    21:00 +3°C° 0 mm 1 mps 753 mmHg 74%
    22:00 +2°C° 0 mm 2 mps 753 mmHg 75%
    23:00 +1°C° 0 mm 3 mps 753 mmHg 77%
    Show more